Skip Page Navigation
NASA JPL Caltech
NASA Logo - Jet Propulsion Laboratory + View the NASA Portal
+ Center for Near-Earth Object Studies
JPL Home Earth Solar System Stars & Galaxies Technology
JPL Solar System Dynamics
BODIES ORBITS EPHEMERIDES TOOLS PHYSICAL DATA DISCOVERY FAQ SITE MAP
IMPORTANT: The SSD Announcement email list is now available. Major changes are coming in the near future, including possible hostname and/or URL changes. To be notified of such changes, subscribe to this email list.

Please visit this page for more details.


JPL Small-Body Database Browser
Search: [ help ]  
97671 (2000 FT46)
Classification: Main-belt Asteroid          SPK-ID: 2097671
Ephemeris | Orbit Diagram | Orbital Elements | Mission Design | Physical Parameters | Discovery Circumstances | Close-Approach Data ]

[ show orbit diagram ]
Orbital Elements at Epoch 2458600.5 (2019-Apr-27.0) TDB
Reference: JPL 13 (heliocentric ecliptic J2000)
 Element Value Uncertainty (1-sigma)   Units 
e .2175240000144351 5.1429e-08  
a 2.698880074119579 1.9152e-08 au
q 2.111808884837833 1.4112e-07 au
i 8.776020415216202 6.2004e-06 deg
node 78.25788511504513 3.2629e-05 deg
peri 196.8174036807249 3.4322e-05 deg
M 49.22190271250413 1.1821e-05 deg
tp 2458379.073444525269
(2018-Sep-17.57344453)
5.2349e-05 TDB
period 1619.473355926428
4.43
1.7238e-05
4.72e-08
d
yr
n .2222944877003304 2.3661e-09 deg/d
Q 3.285951263401325 2.3317e-08 au
  Orbit Determination Parameters
   # obs. used (total)      547  
   data-arc span      6700 days (18.34 yr)  
   first obs. used      2000-03-07  
   last obs. used      2018-07-11  
   planetary ephem.      DE431  
   SB-pert. ephem.      SB431-N16  
   condition code      0  
   norm. resid. RMS      .56346  
   source      ORB  
   producer      Otto Matic  
   solution date      2018-Oct-04 03:48:40  

Additional Information
 Earth MOID = 1.09674 au 
 Jupiter MOID = 1.84209 au 
 T_jup = 3.317 
[ show covariance matrix ]

Ephemeris | Orbit Diagram | Orbital Elements | Mission Design | Physical Parameters | Discovery Circumstances | Close-Approach Data ]

Physical Parameter Table
Parameter Symbol Value Units Sigma Reference Notes
absolute magnitude H 15.1   n/a MPO449597  
diameter diameter 2.967 km 0.330 urn:nasa:pds:neowise_diameters_albedos::2.0[mainbelt] (http://adsabs.harvard.edu/abs/2011ApJ...741...68M)  
geometric albedo albedo 0.318   0.087 urn:nasa:pds:neowise_diameters_albedos::2.0[mainbelt] (http://adsabs.harvard.edu/abs/2011ApJ...741...68M)  

97671 (2000 FT46)          Discovered 2000-Mar-29 by LINEAR at Socorro
Reference: 20050224/Numbers.arcLast Updated: 2005-02-28

[ show close-approach data ]
Ephemeris | Orbit Diagram | Orbital Elements | Mission Design | Physical Parameters | Discovery Circumstances | Close-Approach Data ]
ABOUT SSD CREDITS/AWARDS PRIVACY/COPYRIGHT GLOSSARY LINKS
FirstGov
(server date/time)  
NASA Home Page
Site Manager:   Ryan S. Park
Webmaster  Alan B. Chamberlin